Torna al catalogo

SAC-D

AQUARIUS

AttivoScienzaSSO
NORAD 37673·PAYLOAD·🇦🇷 Argentina

Lanciato Jun 10, 2011 da Vandenberg Space Force Base

Loading…

Prossimi Passaggi (prossime 24 ore)

TLE

AggiornatoSource: Space-Track

Epoca: Sep 14, 2026, 00:10 UTC

1 37673U 11024A   26257.00750414  .00000548  00000-0  81730-4 0  9997
2 37673  97.9775 270.1647 0001462 113.1053 275.8783 14.78749330820912

Traccia SAC-D in tempo reale con AllMySat

Download on the App Store